Погода в Визеу

Португалия     40°39′16″N   7°55′10″W
темп.,
°C
ветер,
м/с
пор.,
м/с
влажн.,
%
обл.,
%
осадки,
мм/ч
давл.,
гПа
погр.,
м
14 июня, пн
пн1401:00+15всв22910 0.9 101916
04:00+15св22845 0.3 101929
07:00+16св22794 0.4 101946
10:00+25в234898 0.0 1019902
13:00+29ю33295 0.0 10182393
16:00+31ююз242347 0.0 10163392
19:00+26сз454789 0.0 1016717
22:00+18с11760 0.0 101812
15 июня, вт
вт1501:00+18ссв23740 0.0 101742
04:00+16св23770 0.0 101652
07:00+17св26750 0.0 1016148
10:00+26всв47420 0.0 1015757
13:00+31в452917 0.0 10131932
16:00+30ююв153338 0.0 10101385
19:00+24сз345796 0.0 1011410
22:00+18с22807 0.4 101219
16 июня, ср
ср1601:00+18св398296 0.9 1012258
04:00+16св228818 0.0 101142
07:00+16всв01905 1.3 101126
10:00+21юз23684 0.8 1011707
13:00+26юз34465 1.5 10101981
16:00+28зюз663632 0.3 10082609
19:00+23зсз45560 0.6 1009904
22:00+15з22955 0.1 101230
17 июня, чт
чт1701:00+14з11963 0.3 101110
04:00+13з1198100 0.0 101140
07:00+14зюз1287100 0.1 1011327
10:00+16ююз1282100 0.1 1012543
13:00+18юз3373100 0.2 1012981
16:00+16юз3390100 0.5 1012550
19:00+14з3490100 0.8 1013459
22:00+13зюз239499 0.1 1014264
18 июня, пт
пт1801:00+12ю1296100 0.1 1014233
04:00+12ююв1296100 0.0 1013308
07:00+12ю129692 0.3 1012174
10:00+15ююв228054 0.1 1012652
13:00+18ююз456755 2.5 10121380
16:00+19ююз566065 2.3 10121384
19:00+16юз357185 3.5 10131055
22:00+11юз119325 0.1 101411